This is the latest recevied weather packets stored in our database for station/object N7MLR. If no packets are shown the sender has not sent any weather packets the latest 10 day(s).
| Time | Temp. | Humidity | Pressure | Rain* | Wind** | Luminosity | Snow |
|---|---|---|---|---|---|---|---|
| 1778028020 | 27.22° C | 78% | 1005.9 hPa | 0 mm | - | 27 W/m² | - |
| 1778027717 | 27.22° C | 77% | 1005.9 hPa | 0 mm | - | 34 W/m² | - |
| 1778027413 | 27.22° C | 77% | 1005.8 hPa | 0 mm | - | 32 W/m² | - |
| 1778027109 | 27.78° C | 76% | 1005.9 hPa | 0 mm | - | 32 W/m² | - |
| 1778026804 | 27.78° C | 75% | 1006.1 hPa | 0 mm | - | 37 W/m² | - |
| 1778026501 | 27.78° C | 74% | 1006.1 hPa | 0 mm | - | 45 W/m² | - |
| 1778026198 | 28.33° C | 73% | 1006 hPa | 0 mm | - | 54 W/m² | - |
| 1778025896 | 28.33° C | 72% | 1005.9 hPa | 0 mm | - | 62 W/m² | - |
| 1778025593 | 28.33° C | 72% | 1005.8 hPa | 0 mm | - | 67 W/m² | - |
| 1778025291 | 28.89° C | 70% | 1005.9 hPa | 0 mm | - | 63 W/m² | - |
| 1778024987 | 28.89° C | 70% | 1005.9 hPa | 0 mm | - | 72 W/m² | - |
| 1778024685 | 29.44° C | 69% | 1006 hPa | 0 mm | - | 62 W/m² | - |
| 1778024381 | 29.44° C | 68% | 1005.7 hPa | 0 mm | - | 74 W/m² | - |
| 1778024079 | 29.44° C | 68% | 1005.7 hPa | 0 mm | - | 121 W/m² | - |
| 1778023776 | 28.89° C | 69% | 1005.8 hPa | 0 mm | - | 120 W/m² | - |
| 1778023474 | 28.33° C | 71% | 1005.8 hPa | 0 mm | - | 117 W/m² | - |
| 1778023171 | 28.89° C | 71% | 1005.9 hPa | 0 mm | - | 105 W/m² | - |
| 1778022868 | 28.89° C | 71% | 1005.7 hPa | 0 mm | - | 106 W/m² | - |
| 1778022567 | 28.89° C | 71% | 1005.8 hPa | 0 mm | - | 92 W/m² | - |
| 1778022264 | 28.89° C | 70% | 1006 hPa | 0 mm | - | 103 W/m² | - |
| 1778021960 | 28.89° C | 69% | 1005.9 hPa | 0 mm | - | 108 W/m² | - |
| 1778021657 | 28.89° C | 70% | 1005.8 hPa | 0 mm | - | 161 W/m² | - |
| 1778021353 | 28.89° C | 70% | 1005.7 hPa | 0 mm | - | 108 W/m² | - |
| 1778021050 | 29.44° C | 70% | 1005.7 hPa | 0 mm | - | 170 W/m² | - |
| 1778020747 | 29.44° C | 68% | 1005.7 hPa | 0 mm | - | 180 W/m² | - |
* Rain latest hour (hover to see other rain measurements)
** Current wind speed in m/s (hover to see current wind gust speed)